Regional Weather Roundup
Issued by NWS

Home | Current Version | Previous Version | Text Only | Print | Product List | Glossary On
Versions: 1 2 3 4 5 6 7 8 9 10 11 12 13 14 15 16 17 18 19 20 21 22 23 24 25 26 27 28 29 30 31 32 33 34 35 36 37 38 39 40 41 42 43 44 45 46 47 48 49 50
822
ASUS43 KDTX 291310
RWRMI
MICHIGAN HOURLY REGIONAL WEATHER ROUNDUP
NATIONAL WEATHER SERVICE DETROIT/PONTIAC MI
900 AM EDT THU SEP 29 2016

NOTE: "FAIR" INDICATES FEW OR NO CLOUDS BELOW 12,000 FEET WITH NO
SIGNIFICANT WEATHER AND/OR OBSTRUCTION TO VISIBILITY.

MIZ047>049-052>055-059>063-066>070-074>076-081>083-291400-
SOUTHEAST LOWER MICHIGAN

CITY           SKY/WX    TMP DP  RH WIND       PRES   REMARKS
ADRIAN         CLOUDY    60  60 100 NE6       30.09R
ALMA           CLOUDY    62  58  87 NE15G23   30.19R
ANN ARBOR      CLOUDY    60  59  96 N10       30.10R
CARO           CLOUDY    61  55  81 E9G21     30.20R
DETROIT CITY   HVY RAIN  58  58 100 S10       30.12R VSB 1/2
DETROIT        CLOUDY    61  60  97 NE5       30.10R FOG
FLINT          LGT RAIN  60  58  92 NE18G25   30.15R FOG
HILLSDALE      CLOUDY    59  55  88 NE5       30.07R
HOWELL         HVY RAIN  58  58  97 NE10G17   30.12R

CITY           SKY/WX    TMP DP  RH WIND       PRES   REMARKS
JACKSON        CLOUDY    59  59 100 NE9       30.10R
LAMBERTVILLE   MOSUNNY   59  58  94 E6        30.09R FOG
LANSING        LGT RAIN  59  57  93 NE16G23   30.14R FOG
LAPEER         RAIN      59  58  94 E13G18    30.16S
MASON          HVY RAIN  58  57  96 NE8       30.12R
MONROE         CLOUDY    62  59  90 SE5       30.09R
MT. CLEMENS    PTSUNNY   61  58  92 E20G28    30.11R
PONTIAC        CLOUDY    59  56  89 NE15G24   30.11R
PORT HURON     CLOUDY    59  57  94 E15       30.17R
TRI CITIES     PTSUNNY   62  57  83 NE20G28   30.22R
MIDLAND        CLOUDY    63  56  79 NE13G23   30.21R
TROY           RAIN      60  57  91 SE7G13    30.14R
SAGINAW HB     CLOUDY    61  55  82 NE17G23   30.19R
$$
MIZ043>046-050>051-056>058-064>065-071>073-077>080-291400-
SOUTHWEST LOWER MICHIGAN

CITY           SKY/WX    TMP DP  RH WIND       PRES   REMARKS
BATTLE CREEK   RAIN      59  58  96 NE13      30.11R FOG
BENTON HARBOR  LGT RAIN  58  55  90 NE6       30.11R FOG
BIG RAPIDS     MOSUNNY   60  56  88 NE9G18    30.22R
COLDWATER      CLOUDY    59  58  98 NE9       30.08S
FREMONT        FAIR      58  55  87 NE12G17   30.19R
HOLLAND        CLOUDY    61  54  77 NE9       30.15R
GRAND RAPIDS   CLOUDY    60  54  80 NE20      30.15R
IONIA          LGT RAIN  58  55  91 NE12G18   30.14S
KALAMAZOO      LGT RAIN  59  56  89 N9        30.11R FOG
LUDINGTON      SUNNY     57  54  89 NE7       30.24R
MARSHALL       LGT RAIN  59  58  97 NE3       30.10R
MOUNT PLEASANT CLOUDY    61  58  88 NE9G20    30.21R
MUSKEGON       PTSUNNY   60  55  83 NE10      30.18R
SOUTH HAVEN    LGT RAIN  59  57  94 NE9       30.12R
$$
MIZ016>042-291400-
NORTHERN LOWER MICHIGAN

CITY           SKY/WX    TMP DP  RH WIND       PRES   REMARKS
ALPENA         CLOUDY    61  57  87 NE13      30.35R
BEAVER ISLAND  SUNNY     59  55  88 E6        30.38R
BELLAIRE       SUNNY     58  56  91 N7        30.33R
CADILLAC       CLOUDY    57  54  89 NE15G22   30.26S
CHARLEVOIX     MOSUNNY   60  57  90 E13G18    30.38R
FRANKFORT      SUNNY     60  55  84 N7        30.31R
GAYLORD        CLOUDY    57  54  89 NE15G21   30.34R
GRAYLING       CLOUDY    58  56  91 NE10G17   30.32R
HARBOR SPRINGS CLOUDY    58  56  93 NE6       30.36R FOG
HOUGHTON LAKE  CLOUDY    58  55  90 NE14      30.29R
MANISTEE       SUNNY     59  54  83 NE12      30.27R
OSCODA         MOSUNNY   62  56  81 NE20G25   30.28R
ROGERS CITY    CLOUDY    60  57  87 E9        30.38R
TRAVERSE CITY  MOSUNNY   60  56  86 NE10      30.30R
$$
MIZ007>008-015-291400-
EASTERN UPPER MICHIGAN

CITY           SKY/WX    TMP DP  RH WIND       PRES   REMARKS
KINROSS        SUNNY     55  50  83 E9        30.41R
MACKINAC ISLAN MOSUNNY   58  57  97 NE9       30.39R
NEWBERRY       SUNNY     53  52  97 N5        30.40R
S. S. MARIE    SUNNY     56  50  80 NE3       30.40R
MUNISING         N/A     52  51  97 S5        30.40R
$$
MIZ004>006-011>014-085-291400-
CENTRAL UPPER MICHIGAN

CITY           SKY/WX    TMP DP  RH WIND       PRES   REMARKS
MANISTIQUE     SUNNY     54  52  93 N8        30.38R
ESCANABA       SUNNY     56  54  93 N6        30.39R
MENOMINEE      SUNNY     54  51  90 N8        30.37R
SAWYER-GWINN   PTSUNNY   55  54  94 N10       30.42S
$$
MIZ001>003-009>011-084-291400-
WESTERN UPPER MICHIGAN

CITY           SKY/WX    TMP DP  RH WIND       PRES   REMARKS
IRON MOUNTAIN  CLOUDY    51  48  89 NW6       30.41R
HOUGHTON       MOSUNNY   55  52  89 N8        30.46R
COPPER HARBOR    N/A     57  55  93 E9        30.46R
IRONWOOD       CLOUDY    53  52  96 NE5       30.48R
$$

ABBREVIATIONS USED IN REMARKS
   TC - TEMPERATURE IN CELSIUS
  WCI - WIND CHILL INDEX
   HX - HEAT INDEX
  VSB - VISIBILITY





USA.gov is the U.S. government's official web portal to all federal, state and local government web resources and services.